TimeCDT,TemperatureF,Dew PointF,Humidity,Sea Level PressureIn,VisibilityMPH,Wind Direction,Wind SpeedMPH,Gust SpeedMPH,PrecipitationIn,Events,Conditions,WindDirDegrees,DateUTC
12:53 AM,62.1,55.0,78,30.00,10.0,NW,3.5,-,N/A,,Clear,310,2013-06-18 05:53:00
1:53 AM,60.1,55.0,83,29.99,10.0,Calm,Calm,-,N/A,,Clear,0,2013-06-18 06:53:00
2:53 AM,59.0,55.0,87,29.99,10.0,NNW,4.6,-,N/A,,Clear,330,2013-06-18 07:53:00
3:53 AM,57.9,54.0,87,30.01,10.0,WNW,4.6,-,N/A,,Clear,290,2013-06-18 08:53:00
4:53 AM,57.9,54.0,87,30.01,10.0,WNW,6.9,-,N/A,,Clear,290,2013-06-18 09:53:00
5:53 AM,60.1,55.0,83,30.04,10.0,NNE,8.1,-,N/A,,Clear,30,2013-06-18 10:53:00
6:53 AM,62.1,57.0,84,30.03,10.0,NE,5.8,-,N/A,,Clear,50,2013-06-18 11:53:00
7:53 AM,64.9,57.9,78,30.04,10.0,NE,9.2,-,N/A,,Clear,40,2013-06-18 12:53:00
8:53 AM,68.0,57.9,70,30.04,10.0,Calm,Calm,-,N/A,,Clear,0,2013-06-18 13:53:00
9:53 AM,71.1,57.9,63,30.06,10.0,Calm,Calm,-,N/A,,Clear,0,2013-06-18 14:53:00
10:53 AM,75.0,57.0,53,30.05,10.0,NNE,10.4,-,N/A,,Partly Cloudy,30,2013-06-18 15:53:00
11:53 AM,75.9,55.9,50,30.05,10.0,NNE,9.2,16.1,N/A,,Clear,20,2013-06-18 16:53:00
12:53 PM,78.1,55.9,46,30.04,10.0,ENE,8.1,-,N/A,,Clear,70,2013-06-18 17:53:00
1:53 PM,78.1,54.0,43,30.04,10.0,NNE,10.4,-,N/A,,Scattered Clouds,30,2013-06-18 18:53:00
2:53 PM,78.1,55.9,46,30.02,10.0,ENE,5.8,-,N/A,,Mostly Cloudy,60,2013-06-18 19:53:00
3:53 PM,80.1,54.0,40,30.01,10.0,ENE,6.9,-,N/A,,Mostly Cloudy,60,2013-06-18 20:53:00
4:53 PM,79.0,55.0,44,30.01,10.0,East,8.1,-,N/A,,Mostly Cloudy,90,2013-06-18 21:53:00
5:53 PM,78.1,55.0,45,30.00,10.0,SSE,5.8,-,N/A,,Partly Cloudy,150,2013-06-18 22:53:00
6:53 PM,79.0,54.0,42,29.99,10.0,East,4.6,-,N/A,,Clear,90,2013-06-18 23:53:00
7:53 PM,77.0,55.9,48,29.99,10.0,East,4.6,-,N/A,,Clear,90,2013-06-19 00:53:00
8:53 PM,71.1,55.9,59,29.98,10.0,East,6.9,-,N/A,,Clear,100,2013-06-19 01:53:00
9:53 PM,68.0,55.9,65,30.00,-9999.0,ESE,5.8,-,N/A,,Clear,110,2013-06-19 02:53:00
10:53 PM,64.9,57.0,75,30.01,-9999.0,East,6.9,-,N/A,,Clear,90,2013-06-19 03:53:00
11:53 PM,64.0,55.9,75,30.01,-9999.0,East,5.8,-,N/A,,Clear,90,2013-06-19 04:53:00